CAPE
0 5 0 0 0 0 0 0 2 0 0 0 0 0 0 0 0 0 0 0 0 0 1 0 1 0 5 0 0 0 0 0 0 0 24 7 0 0
0 0 0 0 0 0 0 0 0 0 1 6 0 0 0 0 0 0 0 0 0 0 0 1 3 1 0 0 0 0 0 0 0 0 0 0 0 0
0 0 0 0 0 0 0 0 0 0 0 0 0 0 0 0 0 0 0 0 0 0 0 0 1 3 1 0 0 0 0 0 0 0 0 0 0 0
0 0 0 0 0 0 0 0 0 0 0 0 0 0 0 0 0 0 0 0 0 0 0 0 0 0 1 1 0 2 2 1 0 0 0 0 0 0
0 0 0 0 0 0 0 0 0 0 0 0 0 0 0 0 0 0 0 0 0 0 0 0 0 1 2 0 0 0 4 0 0 0 0 0 0 0
0 0 0 0 0 0 0 0 0 0 0 0 0 0 0 0 0 0 0 0 0 0 0 0 0 0 9 0 0 0 0 7 0 0 0 0 0 0
0 0 0 0 1 0 0 0 0 0 0 0 0 0 0 0 0 0 0 0 0 0 0 0 0 0 0 0 0 4 0 0 8 0 0 0 0 0
0 0 0 0 0 0 0 4 8 1 0 3 0 0 0 0 0 0 0 0 0 0 0 0 0 0 0 0 0 0 0 2 8 2 0 0 0 0
0 0 0 0 0 0 0 0 0 2 7 0 1 2 0 0 0 0 0 0 0 0 0 0 0 0 0 0 0 0 0 0 0 0 0 0 0 0
0 0 0 0 0 2 1 4 0 0 0 0 0 0 0 0 0 0 0 0 0 0 0 1 0 0 0 0 0 0 0 0 0 0 0 0 0 0
0 0 0 0 1 1 0 0 0 0 0 0 1 0 0 0 0 0 0 0 0 0 0 0 0 0 0 0 0 0 0 0 0 0 0 0 0 0
0 0 0 2 3 2 0 0 0 0 0 0 0 0 0 0 0 0 0 0 0 0 0 0 0 0 0 0 0 0 0 0 0 0 0 0 0 0
0 0 0 3 4 3 1 0 0 0 0 0 0 0 0 0 0 0 0 0 0 0 0 0 0 0 0 0 0 0 0 0 0 0 0 0 0 0
0 0 0 4 3 1 0 1 1 0 0 0 0 0 0 0 0 0 0 0 0 0 0 0 0 0 0 0 0 0 0 0 0 0 0 0 0 0
0 0 1 1 0 0 0 1 0 0 0 0 0 0 0 0 0 0 0 0 0 0 0 1 0 0 0 0 0 0 0 0 0 0 0 0 0 0
0 0 0 0 0 0 0 0 0 0 0 0 0 0 0 0 0 0 0 0 0 0 1 1 0 0 0 0 0 0 0 0 0 0 0 0 0 0
0 0 0 0 0 0 0 0 0 0 0 0 0 0 0 0 0 0 0 0 0 0 0 0 0 1 0 0 0 0 0 0 0 0 0 0 0 0
0 0 0 0 0 0 0 0 0 0 0 0 0 0 0 0 0 0 0 0 0 0 0 0 0 0 0 0 0 0 0 0 0 0 0 0 0 0
0 0 0 0 0 0 0 0 0 0 0 0 0 0 0 0 0 0 0 0 0 0 0 0 0 0 0 0 0 1 0 0 0 0 0 0 0 0
0 0 0 0 0 0 0 0 0 0 0 0 0 0 0 0 0 0 0 0 0 0 0 0 0 0 0 0 0 0 0 0 0 0 0 0 0 0
0 0 0 0 0 0 0 0 0 0 0 0 0 0 0 0 0 0 0 0 0 0 0 0 0 0 0 0 0 0 0 0 0 0 0 0 0 0
0 0 0 0 0 0 0 0 0 0 0 0 0 0 0 0 0 0 0 0 0 0 0 0 0 0 0 0 0 0 0 0 0 0 0 0 0 0
0 0 0 0 0 0 0 0 0 0 0 0 0 0 0 0 0 0 0 0 0 0 0 0 0 0 0 0 0 0 0 0 0 0 0 0 0 0
CIN
-2 -35 -0 -0 -0 -0 -0 -0 -0 -0 -0 -0 -1 -0 -0 -0 -0 -0 -0 -0 -0 -0 -0 -0 -0 -0 -2 -0 -0 -0 -0 -0 -0 -0 -4 -3 -0 -0
-0 -0 -0 -0 -0 -0 -0 -0 -0 -0 -0 -2 -0 -0 -0 -0 -0 -0 -0 -0 -0 -0 -0 -0 -0 -0 -0 -0 -0 -0 -0 -0 -0 -0 -0 -0 -0 -0
-0 -0 -0 -0 -0 -0 -0 -0 -0 -0 -0 -0 -0 -0 -0 -0 -0 -0 -0 -0 -0 -0 -0 -0 -0 -0 -1 -0 -0 -0 -0 -0 -0 -0 -0 -0 -0 -0
-0 -0 -0 -0 -0 -0 -0 -0 -0 -0 -0 -0 -0 -0 -0 -0 -0 -0 -0 -0 -0 -0 -0 -0 -0 -0 -0 -0 -0 -11 -13 -14 -0 -0 -0 -0 -0 -0
-0 -0 -0 -0 -0 -0 -0 -0 -0 -0 -0 -0 -0 -0 -0 -0 -0 -0 -0 -0 -0 -0 -0 -0 -0 -6 -3 -0 -0 -0 -9 -15 -0 -0 -0 -0 -0 -0
-0 -0 -0 -0 -0 -0 -0 -0 -0 -0 -0 -0 -0 -0 -0 -0 -0 -0 -0 -0 -0 -0 -0 -0 -0 -0 -41 -0 -0 -0 -6 -19 -0 -0 -0 -0 -0 -0
-0 -0 -0 -0 -0 -1 -0 -0 -0 -2 -1 -0 -0 -0 -0 -0 -0 -0 -0 -0 -0 -0 -0 -0 -0 -0 -0 -0 -0 -21 -1 -0 -40 -0 -0 -0 -0 -0
-0 -0 -0 -0 -0 -0 -0 -1 -1 -1 -0 -0 -2 -0 -0 -0 -0 -0 -0 -0 -0 -0 -0 -0 -0 -0 -0 -0 -0 -0 -0 -48 -26 -14 -0 -0 -0 -0
-0 -0 -0 -0 -0 -0 -0 -0 -0 -3 -1 -0 -1 -0 -0 -0 -0 -0 -0 -0 -0 -0 -0 -0 -0 -0 -0 -0 -0 -0 -0 -0 -0 -0 -0 -0 -0 -0
-0 -0 -0 -0 -0 -1 -1 -1 -0 -0 -0 -0 -0 -0 -0 -0 -0 -0 -0 -0 -0 -0 -0 -0 -0 -0 -0 -0 -0 -0 -0 -0 -0 -0 -0 -0 -0 -0
-0 -0 -0 -1 -0 -0 -0 -0 -0 -0 -0 -0 -0 -1 -1 -2 -0 -0 -1 -0 -0 -0 -0 -0 -0 -0 -0 -0 -0 -0 -0 -0 -0 -0 -0 -0 -0 -0
-0 -0 -0 -0 -0 -0 -1 -0 -0 -0 -0 -0 -0 -0 -0 -0 -0 -0 -0 -0 -0 -0 -0 -0 -0 -0 -0 -0 -0 -0 -0 -0 -0 -0 -0 -0 -0 -0
-0 -0 -0 -0 -1 -0 -0 -0 -0 -0 -0 -0 -0 -0 -0 -0 -0 -0 -0 -0 -0 -0 -0 -0 -0 -0 -0 -0 -0 -0 -0 -0 -0 -0 -0 -0 -0 -0
-0 -0 -2 -1 -0 -0 -0 -0 -0 -0 -0 -0 -0 -0 -0 -0 -0 -0 -0 -0 -0 -0 -0 -0 -0 -0 -0 -0 -0 -0 -0 -0 -0 -0 -0 -0 -0 -0
-0 -0 -1 -0 -1 -0 -0 -0 -0 -0 -0 -0 -0 -0 -0 -0 -0 -0 -0 -0 -0 -0 -0 -0 -0 -0 -0 -0 -0 -0 -0 -0 -0 -0 -0 -0 -0 -0
-0 -0 -0 -0 -0 -0 -0 -0 -0 -0 -0 -0 -0 -0 -0 -0 -0 -0 -0 -0 -0 -0 -0 -0 -0 -0 -0 -0 -0 -0 -0 -0 -0 -0 -0 -0 -0 -0
-0 -0 -0 -0 -0 -0 -0 -0 -0 -0 -0 -0 -0 -0 -0 -0 -0 -0 -0 -0 -0 -0 -0 -0 -0 -0 -0 -0 -0 -0 -0 -0 -0 -0 -0 -0 -0 -0
-0 -0 -0 -0 -0 -0 -0 -0 -0 -0 -0 -0 -0 -0 -0 -0 -0 -0 -0 -0 -0 -0 -0 -0 -0 -0 -0 -0 -0 -0 -0 -0 -0 -0 -0 -0 -0 -0
-0 -0 -0 -0 -0 -0 -0 -0 -0 -0 -0 -0 -0 -0 -0 -0 -0 -0 -0 -0 -0 -0 -0 -0 -0 -0 -0 -0 -0 -0 -0 -0 -0 -0 -0 -0 -0 -0
-0 -0 -0 -0 -0 -0 -0 -0 -0 -0 -0 -0 -0 -0 -0 -0 -0 -0 -0 -0 -0 -0 -0 -0 -0 -0 -0 -0 -0 -0 -0 -0 -0 -0 -0 -0 -0 -0
-0 -0 -0 -0 -0 -0 -0 -0 -0 -0 -0 -0 -0 -0 -0 -0 -0 -0 -0 -0 -0 -0 -0 -0 -0 -0 -0 -0 -0 -0 -0 -0 -0 -0 -0 -0 -0 -0
-0 -0 -0 -0 -0 -0 -0 -0 -0 -0 -0 -0 -0 -0 -0 -0 -0 -0 -0 -0 -0 -0 -0 -0 -0 -0 -0 -0 -0 -0 -0 -0 -0 -0 -0 -0 -0 -0
-0 -0 -0 -0 -0 -0 -0 -0 -0 -0 -0 -0 -0 -0 -0 -0 -0 -0 -0 -0 -0 -0 -0 -0 -0 -0 -0 -0 -0 -0 -0 -0 -0 -0 -0 -0 -0 -0
Wind_Speed
33 34 31 30 31 31 33 33 35 41 41 33 30 31 31 29 29 29 29 29 29 29 32 36 37 35 35 34 33 32 31 30 33 34 31 27 26 26
30 29 29 29 31 31 34 34 34 35 41 33 36 34 32 31 31 31 31 31 31 31 31 31 33 37 35 34 32 30 30 28 26 25 25 26 25 25
29 29 30 31 33 36 36 36 36 35 39 40 36 35 32 34 34 34 34 34 33 33 32 33 32 34 35 37 38 36 34 30 27 25 26 26 25 24
30 32 33 34 37 38 38 38 38 37 37 41 37 33 33 35 35 35 35 33 33 31 31 34 36 33 34 37 36 37 32 31 28 28 27 26 27 26
31 34 35 37 38 38 38 38 37 37 36 38 39 35 35 33 33 34 33 33 32 32 31 30 30 36 37 36 38 35 37 34 30 27 28 28 28 28
32 33 33 34 35 36 37 36 36 38 36 36 37 37 35 33 32 34 35 32 34 33 33 30 26 25 27 34 37 37 34 36 33 31 31 32 31 30
33 33 32 32 32 32 33 33 35 37 37 37 36 34 34 34 35 31 34 33 33 32 32 29 27 27 25 24 25 31 34 35 34 32 32 32 34 34
34 33 31 29 29 31 32 30 27 31 34 36 37 36 35 34 33 35 34 34 33 27 26 29 31 32 30 28 29 28 28 31 32 36 36 35 35 36
33 32 29 28 30 29 29 28 25 23 26 34 36 36 36 34 33 35 35 35 35 32 31 35 30 35 33 33 34 32 33 29 29 31 29 31 34 34
31 27 25 26 26 25 24 24 23 22 20 26 31 34 34 32 29 30 35 34 34 33 29 35 29 36 38 36 35 37 36 34 33 32 32 33 33 36
28 26 25 24 22 21 20 16 15 14 16 28 35 35 34 31 28 24 31 32 33 31 28 32 34 35 36 39 38 38 36 36 35 34 36 37 36 37
29 27 24 23 24 25 23 18 13 6 5 26 30 31 31 32 33 35 35 37 35 35 30 27 32 28 31 28 32 35 36 35 37 38 40 40 40 39
30 27 24 24 27 25 24 18 18 21 13 17 22 24 25 26 27 29 31 32 31 32 24 24 25 23 25 28 28 26 26 28 29 32 34 35 34 36
29 25 23 27 26 24 21 18 15 5 10 15 17 18 18 20 21 24 26 28 30 31 27 26 25 23 24 25 26 24 24 27 28 30 29 30 31 32
30 28 28 28 26 22 19 18 14 3 10 13 14 15 16 18 19 20 22 25 27 28 27 21 20 21 21 22 21 21 21 22 23 25 24 25 27 28
31 30 29 27 26 21 19 18 14 1 9 11 12 13 14 15 15 16 17 16 20 22 24 25 25 26 28 28 6 9 20 23 22 23 25 26 27 27
29 31 31 31 32 30 24 16 10 7 14 13 13 14 13 13 13 13 13 14 15 17 17 17 21 22 22 19 12 13 10 5 23 26 26 29 28 28
29 29 31 31 31 31 31 25 19 19 14 13 13 13 12 12 12 12 11 11 10 11 12 14 15 5 13 12 13 13 10 10 7 17 21 25 28 27
28 29 29 30 30 29 29 29 25 21 16 15 14 14 14 15 14 14 14 14 13 13 13 13 13 13 12 11 13 14 13 13 12 11 6 21 24 25
25 27 27 28 29 28 28 27 27 25 23 21 19 18 17 17 17 17 17 17 17 17 17 17 16 16 15 14 11 11 12 12 12 12 10 20 22 24
23 24 26 25 28 28 27 27 26 26 25 23 22 21 20 19 19 19 19 19 19 20 20 20 21 21 18 15 16 13 10 11 12 11 10 9 9 15
21 21 22 24 25 27 27 27 26 26 25 24 24 23 22 21 21 20 20 20 21 21 21 22 21 19 15 17 18 17 13 13 13 10 8 9 10 9
18 20 21 22 23 24 25 27 27 26 26 25 24 24 23 23 22 22 21 21 21 21 21 20 19 18 17 17 18 17 15 16 17 18 16 12 13 9
Wind_Direction
332 332 332 331 329 326 322 318 313 308 304 309 308 312 310 312 318 313 309 304 299 293 285 276 265 265 261 261 265 264 263 264 261 258 259 253 259 261
337 338 335 334 331 328 322 317 313 308 303 304 301 304 303 307 308 307 307 302 297 292 284 282 272 265 263 262 260 263 263 263 259 256 251 254 255 259
338 336 333 331 328 324 320 316 311 308 302 300 299 299 299 300 301 302 300 298 297 290 285 278 277 268 261 261 260 259 262 262 255 253 252 252 255 257
334 333 331 330 326 323 319 314 310 307 303 299 299 297 295 296 296 297 298 296 294 293 290 276 269 269 264 262 262 258 258 255 253 251 250 251 253 257
334 332 330 329 326 325 322 317 312 308 304 299 296 296 295 295 295 295 294 293 291 288 287 283 278 267 262 262 260 262 255 253 254 251 251 250 253 255
334 333 332 331 329 327 324 320 316 310 305 300 297 294 294 293 293 291 289 291 288 283 279 281 281 278 272 263 259 259 262 256 253 252 252 254 256 258
337 336 335 334 332 331 330 326 320 312 302 299 297 295 292 289 286 289 286 288 287 284 277 274 275 273 277 275 268 261 257 260 257 253 252 256 257 260
338 339 339 339 338 335 332 329 327 320 308 298 292 290 289 288 287 284 283 282 282 287 281 272 271 267 270 270 267 267 264 261 260 257 255 257 259 261
344 343 345 344 341 340 338 335 333 330 318 302 292 287 284 286 286 283 277 277 275 277 278 272 271 265 268 268 265 265 264 267 264 260 263 262 260 263
349 351 352 351 351 349 347 342 338 338 334 317 300 289 283 285 290 287 276 273 273 273 277 270 275 267 265 267 265 262 262 265 265 263 263 264 264 265
357 359 360 1 3 359 354 350 346 342 340 315 286 279 279 283 290 291 269 268 269 273 277 274 273 273 268 266 265 263 263 265 266 266 264 264 266 268
360 3 7 9 7 6 3 4 1 346 7 293 285 280 279 279 277 259 257 258 266 271 278 278 272 277 272 275 273 267 264 266 267 266 264 264 265 267
1 5 11 11 10 14 16 21 20 13 255 243 256 268 273 268 253 249 250 256 261 261 278 276 274 277 274 275 278 278 270 268 271 271 269 267 268 268
4 7 12 11 15 20 25 30 37 65 246 262 259 256 253 253 252 247 243 235 232 235 264 265 272 276 275 277 278 280 276 274 274 272 271 269 270 271
3 4 5 10 19 28 36 42 53 103 259 255 252 251 252 254 255 252 247 240 240 246 262 283 284 285 285 284 287 289 286 285 281 276 275 273 273 274
7 1 5 12 21 35 44 50 61 180 267 263 258 257 252 254 257 263 254 270 248 240 237 219 210 209 221 247 270 183 295 290 288 279 277 275 275 276
12 0 0 359 0 13 31 55 69 290 297 284 276 276 271 266 261 267 254 245 237 236 240 245 208 200 196 185 147 166 167 323 289 281 278 276 277 279
11 13 357 353 350 348 352 325 309 310 297 287 284 274 265 261 259 259 263 277 283 279 274 259 249 92 130 123 138 156 148 157 136 304 285 278 278 282
13 12 7 350 345 344 339 342 324 312 295 295 292 286 278 276 281 283 286 286 291 297 296 299 316 328 40 63 94 101 94 112 131 126 32 292 287 288
19 12 13 0 344 343 337 334 330 326 323 314 308 306 302 294 294 297 299 302 296 291 295 306 316 319 333 356 34 83 104 93 115 125 123 305 297 290
19 17 11 12 358 340 337 331 328 327 327 323 320 316 311 309 305 302 301 301 305 303 295 295 288 278 299 344 333 9 60 71 81 88 114 125 131 329
19 20 17 9 6 356 336 332 328 326 325 325 322 320 319 315 310 308 310 309 307 305 303 297 301 315 337 327 327 337 6 4 19 54 86 72 46 38
22 19 17 15 11 6 358 331 327 324 324 322 320 320 319 317 314 313 313 314 315 312 313 311 316 326 330 327 325 329 340 341 342 346 355 14 12 47